Regional Weather Roundup
Issued by NWS

Home | Current Version | Previous Version | Text Only | Print | Product List | Glossary On
Versions: 1 2 3 4 5 6 7 8 9 10 11 12 13 14 15 16 17 18 19 20 21 22 23 24 25 26 27 28
000
ASUS44 KBMX 190610
RWRAL

ALABAMA REGIONAL WEATHER ROUNDUP
NATIONAL WEATHER SERVICE BIRMINGHAM AL
1200 AM CST FRI JAN 19 2018

NOTE: "FAIR" INDICATES FEW OR NO CLOUDS BELOW 12,000 FEET
WITH NO SIGNIFICANT WEATHER AND/OR OBSTRUCTIONS TO VISIBILITY.

THE REMARK "TC" DENOTES TEMPERATURE IN DEGREES CELSIUS.

ALZ001>011-014-016>018-020-190700-
NORTH ALABAMA

CITY           SKY/WX    TMP DP  RH WIND       PRES   REMARKS
MUSCLE SHOALS  FAIR      20  16  84 CALM      30.37F
6HR MIN TEMP:  20; 6HR MAX TEMP:  31;

HUNTSVILLE     FAIR      22  17  81 E3        30.36F
6HR MIN TEMP:  21; 6HR MAX TEMP:  32;

DECATUR        FAIR      18  16  92 CALM      30.38F
6HR MIN TEMP:  14; 6HR MAX TEMP:  27;

HALEYVILLE     FAIR      19  15  84 CALM      30.37F
6HR MIN TEMP:  19; 6HR MAX TEMP:  28;

GADSDEN        FAIR      18  15  88 CALM      30.38
6HR MIN TEMP:  17; 6HR MAX TEMP:  33;

$$

ALZ012-013-022-023-030>036-040>044-190700-
WEST CENTRAL ALABAMA

CITY           SKY/WX    TMP DP  RH WIND       PRES   REMARKS
TUSCALOOSA     FAIR      21  16  81 CALM      30.41S
6HR MIN TEMP:  21; 6HR MAX TEMP:  33;

DEMOPOLIS        N/A     20  17  86 CALM      30.41F
6HR MIN TEMP:  20; 6HR MAX TEMP:  32;

$$

ALZ015-024>026-033>036-041>044-190700-
CENTRAL ALABAMA

CITY           SKY/WX    TMP DP  RH WIND       PRES   REMARKS
BIRMINGHAM     FAIR      22  15  75 CALM      30.40S
6HR MIN TEMP:  21; 6HR MAX TEMP:  32;

MONTGOMERY     FAIR      22  16  78 SW3       30.39F
6HR MIN TEMP:  22; 6HR MAX TEMP:  37;

SHELBY CO ARPT FAIR      23  18  81 CALM      30.37F
6HR MIN TEMP:  22; 6HR MAX TEMP:  31;

MAXWELL AFB    FAIR      24  21  91 CALM      30.37F
6HR MIN TEMP:  24; 6HR MAX TEMP:  36;

GREENVILLE     FAIR      23  18  81 CALM      30.36F
6HR MIN TEMP:  23; 6HR MAX TEMP:  34;

SELMA          FAIR      21  18  86 CALM      30.40S
PRATTVILLE     FAIR      22  19  90 CALM      30.38F
6HR MIN TEMP:  21; 6HR MAX TEMP:  33;

BESSEMER       FAIR      22  11  62 CALM      30.38S
6HR MIN TEMP:  22; 6HR MAX TEMP:  35;

TALLADEGA      FAIR      20  17  88 CALM      30.38S
6HR MIN TEMP:  20; 6HR MAX TEMP:  34;

PELL CITY      CLEAR     18  16  93 CALM      30.39S
MARION         FAIR      21  18  86 NW3       30.39S
6HR MIN TEMP:  21; 6HR MAX TEMP:  33;

SYLACAUGA      FAIR      22  21  93 CALM      30.37F
6HR MIN TEMP:  21; 6HR MAX TEMP:  32;

$$

ALZ019-021-028-029-037-038-045>048-190700-
EAST CENTRAL ALABAMA

CITY           SKY/WX    TMP DP  RH WIND       PRES   REMARKS
ANNISTON       FAIR      21  16  81 W3        30.37S
6HR MIN TEMP:  19; 6HR MAX TEMP:  29;

ALEXANDER CITY FAIR      22  21  96 CALM      30.35S
6HR MIN TEMP:  20; 6HR MAX TEMP:  33;

AUBURN         FAIR      28  20  71 CALM      30.35F
6HR MIN TEMP:  27; 6HR MAX TEMP:  37;

$$

ALZ051>064-190700-
SOUTHWEST ALABAMA

CITY           SKY/WX    TMP DP  RH WIND       PRES   REMARKS
MOBILE         FAIR      25  18  74 CALM      30.41F
6HR MIN TEMP:  22; 6HR MAX TEMP:  36;

BROOKLEY FIELD FAIR      27  24  89 NW5       30.43F WCI  22
6HR MIN TEMP:  26; 6HR MAX TEMP:  41;

EVERGREEN      FAIR      23  19  85 CALM      30.40F
6HR MIN TEMP:  23; 6HR MAX TEMP:  34;

$$

ALZ049-050-065>069-190700-
SOUTHEAST ALABAMA

CITY           SKY/WX    TMP DP  RH WIND       PRES   REMARKS
DOTHAN           N/A     28  19  69 NW3       30.40F
6HR MIN TEMP:  26; 6HR MAX TEMP:  39;

OZARK          FAIR      24  17  74 CALM      30.37F
6HR MIN TEMP:  24; 6HR MAX TEMP:  39;

TROY           FAIR      22  20  92 CALM      30.38F
6HR MIN TEMP:  22; 6HR MAX TEMP:  32;

EUFAULA        FAIR      25  20  81 CALM      30.37F
6HR MIN TEMP:  25; 6HR MAX TEMP:  37;

$$




USA.gov is the U.S. government's official web portal to all federal, state and local government web resources and services.